"Sample Date","Sample Time","Sensor Name","Sample Value","Units","Flow Rate","Sample Interval","Sample Volume","Laser Status","Number Channels","Micron Size 0","Counts/Channel 0","Micron Size 1","Counts/Channel 1","Micron Size 2","Counts/Channel 2","Micron Size 3","Counts/Channel 3","Micron Size 4","Counts/Channel 4","Micron Size 5","Counts/Channel 5","Micron Size 6","Counts/Channel 6","Micron Size 7","Counts/Channel 7","Micron Size 8","Counts/Channel 8","Micron Size 9","Counts/Channel 9","Micron Size 10","Counts/Channel 10","Micron Size 11","Counts/Channel 11","Micron Size 12","Counts/Channel 12","Micron Size 13","Counts/Channel 13","Micron Size 14","Counts/Channel 14","Micron Size 15","Counts/Channel 15","Micron Size 16","Counts/Channel 16","Micron Size 17","Counts/Channel 17","Micron Size 18","Counts/Channel 18","Micron Size 19","Counts/Channel 19","Micron Size 20","Counts/Channel 20","Micron Size 21","Counts/Channel 21","Micron Size 22","Counts/Channel 22","Micron Size 23","Counts/Channel 23","Micron Size 24","Counts/Channel 24","Micron Size 25","Counts/Channel 25","Micron Size 26","Counts/Channel 26","Micron Size 27","Counts/Channel 27","Micron Size 28","Counts/Channel 28","Micron Size 29","Counts/Channel 29","Micron Size 30","Counts/Channel 30","Micron Size 31","Counts/Channel 31"
"07/02/06","00:00:02","AMMA06",62214.000,"cc",28248.766,6.00,2824.877,1,6,0.100,28633.000,0.200,26580.000,0.300,4803.000,0.500,1289.000,1.000,907.000,5.000,2.000
"07/02/06","00:00:08","AMMA06",62017.000,"cc",28352.623,6.00,2835.263,1,6,0.100,28692.000,0.200,26388.000,0.300,4772.000,0.500,1292.000,1.000,872.000,5.000,1.000
"07/02/06","00:00:14","AMMA06",62040.000,"cc",28387.176,6.00,2838.718,1,6,0.100,28685.000,0.200,26306.000,0.300,4913.000,0.500,1261.000,1.000,874.000,5.000,1.000
"07/02/06","00:00:20","AMMA06",61629.000,"cc",28334.088,6.00,2833.409,1,6,0.100,28274.000,0.200,26372.000,0.300,4792.000,0.500,1291.000,1.000,899.000,5.000,1.000
"07/02/06","00:00:26","AMMA06",61687.000,"cc",28246.752,6.00,2824.675,1,6,0.100,27957.000,0.200,26613.000,0.300,4917.000,0.500,1314.000,1.000,885.000,5.000,1.000
"07/02/06","00:00:32","AMMA06",62062.000,"cc",28328.260,6.00,2832.826,1,6,0.100,28547.000,0.200,26576.000,0.300,4834.000,0.500,1247.000,1.000,858.000,5.000,0
"07/02/06","00:00:38","AMMA06",61463.000,"cc",28369.197,6.00,2836.920,1,6,0.100,27891.000,0.200,26562.000,0.300,4838.000,0.500,1296.000,1.000,876.000,5.000,0
"07/02/06","00:00:44","AMMA06",61737.000,"cc",28339.639,6.00,2833.964,1,6,0.100,28199.000,0.200,26538.000,0.300,4953.000,0.500,1192.000,1.000,854.000,5.000,1.000
"07/02/06","00:00:50","AMMA06",62170.000,"cc",28300.254,6.00,2830.026,1,6,0.100,28263.000,0.200,26839.000,0.300,4963.000,0.500,1254.000,1.000,851.000,5.000,0
"07/02/06","00:00:56","AMMA06",61610.000,"cc",28303.520,6.00,2830.352,1,6,0.100,27907.000,0.200,26503.000,0.300,5052.000,0.500,1237.000,1.000,911.000,5.000,0
"07/02/06","00:01:02","AMMA06",62161.000,"cc",28293.408,6.00,2829.341,1,6,0.100,28376.000,0.200,26584.000,0.300,5019.000,0.500,1251.000,1.000,931.000,5.000,0
"07/02/06","00:01:08","AMMA06",61639.000,"cc",28318.316,6.00,2831.832,1,6,0.100,27887.000,0.200,26649.000,0.300,4926.000,0.500,1284.000,1.000,893.000,5.000,0
"07/02/06","00:01:14","AMMA06",61559.000,"cc",28284.295,6.00,2828.430,1,6,0.100,27851.000,0.200,26578.000,0.300,5022.000,0.500,1241.000,1.000,867.000,5.000,0
"07/02/06","00:01:20","AMMA06",62510.000,"cc",28353.936,6.00,2835.394,1,6,0.100,28433.000,0.200,26836.000,0.300,4978.000,0.500,1319.000,1.000,942.000,5.000,2.000
"07/02/06","00:01:26","AMMA06",61783.000,"cc",28325.150,6.00,2832.515,1,6,0.100,28097.000,0.200,26636.000,0.300,4959.000,0.500,1262.000,1.000,829.000,5.000,0
"07/02/06","00:01:32","AMMA06",61860.000,"cc",28287.223,6.00,2828.722,1,6,0.100,28259.000,0.200,26402.000,0.300,5015.000,0.500,1311.000,1.000,872.000,5.000,1.000
"07/02/06","00:01:38","AMMA06",61947.000,"cc",28283.533,6.00,2828.354,1,6,0.100,28047.000,0.200,26761.000,0.300,4986.000,0.500,1253.000,1.000,900.000,5.000,0
"07/02/06","00:01:44","AMMA06",62129.000,"cc",28364.732,6.00,2836.473,1,6,0.100,28136.000,0.200,26814.000,0.300,4985.000,0.500,1307.000,1.000,886.000,5.000,1.000
"07/02/06","00:01:50","AMMA06",61949.000,"cc",28297.645,6.00,2829.765,1,6,0.100,27996.000,0.200,26740.000,0.300,4988.000,0.500,1329.000,1.000,896.000,5.000,0
"07/02/06","00:01:56","AMMA06",62205.000,"cc",28300.063,6.00,2830.006,1,6,0.100,28264.000,0.200,26720.000,0.300,5087.000,0.500,1253.000,1.000,881.000,5.000,0
"07/02/06","00:02:02","AMMA06",61864.000,"cc",28329.486,6.00,2832.949,1,6,0.100,28207.000,0.200,26508.000,0.300,4937.000,0.500,1321.000,1.000,890.000,5.000,1.000
"07/02/06","00:02:08","AMMA06",61969.000,"cc",28314.781,6.00,2831.478,1,6,0.100,28213.000,0.200,26748.000,0.300,4872.000,0.500,1264.000,1.000,872.000,5.000,0
"07/02/06","00:02:14","AMMA06",61535.000,"cc",28294.869,6.00,2829.487,1,6,0.100,27978.000,0.200,26592.000,0.300,4797.000,0.500,1251.000,1.000,917.000,5.000,0
"07/02/06","00:02:20","AMMA06",61860.000,"cc",28279.844,6.00,2827.985,1,6,0.100,28226.000,0.200,26605.000,0.300,4846.000,0.500,1272.000,1.000,911.000,5.000,0
"07/02/06","00:02:26","AMMA06",62234.000,"cc",28364.609,6.00,2836.461,1,6,0.100,28341.000,0.200,26773.000,0.300,4980.000,0.500,1279.000,1.000,859.000,5.000,2.000
"07/02/06","00:02:32","AMMA06",61633.000,"cc",28321.609,6.00,2832.161,1,6,0.100,28119.000,0.200,26440.000,0.300,4863.000,0.500,1322.000,1.000,889.000,5.000,0
"07/02/06","00:02:38","AMMA06",62094.000,"cc",28302.107,6.00,2830.211,1,6,0.100,28587.000,0.200,26308.000,0.300,5056.000,0.500,1248.000,1.000,895.000,5.000,0
"07/02/06","00:02:44","AMMA06",61640.000,"cc",28289.063,6.00,2828.907,1,6,0.100,28052.000,0.200,26722.000,0.300,4835.000,0.500,1228.000,1.000,803.000,5.000,0
"07/02/06","00:02:50","AMMA06",62288.000,"cc",28343.295,6.00,2834.330,1,6,0.100,28458.000,0.200,26713.000,0.300,4962.000,0.500,1274.000,1.000,880.000,5.000,1.000
"07/02/06","00:02:56","AMMA06",61828.000,"cc",28328.467,6.00,2832.847,1,6,0.100,28395.000,0.200,26451.000,0.300,4890.000,0.500,1255.000,1.000,837.000,5.000,0
"07/02/06","00:03:02","AMMA06",61830.000,"cc",28250.697,6.00,2825.070,1,6,0.100,28192.000,0.200,26601.000,0.300,4936.000,0.500,1262.000,1.000,836.000,5.000,3.000
"07/02/06","00:03:08","AMMA06",61989.000,"cc",28345.768,6.00,2834.577,1,6,0.100,28336.000,0.200,26718.000,0.300,4762.000,0.500,1265.000,1.000,905.000,5.000,3.000
"07/02/06","00:03:14","AMMA06",61649.000,"cc",28338.113,6.00,2833.812,1,6,0.100,28180.000,0.200,26396.000,0.300,4858.000,0.500,1297.000,1.000,918.000,5.000,0
"07/02/06","00:03:20","AMMA06",61332.000,"cc",28339.693,6.00,2833.970,1,6,0.100,28101.000,0.200,26426.000,0.300,4767.000,0.500,1211.000,1.000,826.000,5.000,1.000
"07/02/06","00:03:26","AMMA06",61674.000,"cc",28336.924,6.00,2833.693,1,6,0.100,28354.000,0.200,26381.000,0.300,4778.000,0.500,1273.000,1.000,888.000,5.000,0
"07/02/06","00:03:32","AMMA06",61440.000,"cc",28286.637,6.00,2828.664,1,6,0.100,28386.000,0.200,26182.000,0.300,4765.000,0.500,1273.000,1.000,833.000,5.000,1.000
"07/02/06","00:03:38","AMMA06",61638.000,"cc",28304.232,6.00,2830.423,1,6,0.100,28520.000,0.200,26100.000,0.300,4911.000,0.500,1260.000,1.000,847.000,5.000,0
"07/02/06","00:03:44","AMMA06",61711.000,"cc",28317.313,6.00,2831.731,1,6,0.100,28289.000,0.200,26534.000,0.300,4770.000,0.500,1315.000,1.000,803.000,5.000,0
"07/02/06","00:03:50","AMMA06",61635.000,"cc",28291.231,6.00,2829.123,1,6,0.100,28282.000,0.200,26348.000,0.300,4820.000,0.500,1348.000,1.000,837.000,5.000,0
"07/02/06","00:03:56","AMMA06",61836.000,"cc",28349.969,6.00,2834.997,1,6,0.100,28635.000,0.200,26274.000,0.300,4843.000,0.500,1228.000,1.000,855.000,5.000,1.000
"07/02/06","00:04:02","AMMA06",61596.000,"cc",28270.238,6.00,2827.024,1,6,0.100,28329.000,0.200,26286.000,0.300,4820.000,0.500,1298.000,1.000,862.000,5.000,1.000
"07/02/06","00:04:08","AMMA06",61972.000,"cc",28320.035,6.00,2832.004,1,6,0.100,28784.000,0.200,26216.000,0.300,4752.000,0.500,1344.000,1.000,876.000,5.000,0
"07/02/06","00:04:14","AMMA06",61518.000,"cc",28338.574,6.00,2833.858,1,6,0.100,28317.000,0.200,26295.000,0.300,4755.000,0.500,1289.000,1.000,862.000,5.000,0
"07/02/06","00:04:20","AMMA06",61985.000,"cc",28301.590,6.00,2830.159,1,6,0.100,28764.000,0.200,26196.000,0.300,4795.000,0.500,1336.000,1.000,894.000,5.000,0
"07/02/06","00:04:26","AMMA06",61220.000,"cc",28313.895,6.00,2831.390,1,6,0.100,28225.000,0.200,26152.000,0.300,4678.000,0.500,1253.000,1.000,912.000,5.000,0
"07/02/06","00:04:32","AMMA06",61783.000,"cc",28328.516,6.00,2832.852,1,6,0.100,28505.000,0.200,26223.000,0.300,4809.000,0.500,1328.000,1.000,918.000,5.000,0
"07/02/06","00:04:38","AMMA06",61374.000,"cc",28311.992,6.00,2831.200,1,6,0.100,28462.000,0.200,26011.000,0.300,4770.000,0.500,1289.000,1.000,841.000,5.000,1.000
"07/02/06","00:04:44","AMMA06",61736.000,"cc",28341.139,6.00,2834.114,1,6,0.100,28575.000,0.200,26403.000,0.300,4694.000,0.500,1227.000,1.000,837.000,5.000,0
"07/02/06","00:04:50","AMMA06",61299.000,"cc",28311.461,6.00,2831.146,1,6,0.100,28388.000,0.200,26020.000,0.300,4739.000,0.500,1290.000,1.000,862.000,5.000,0
"07/02/06","00:04:56","AMMA06",61762.000,"cc",28324.117,6.00,2832.412,1,6,0.100,28702.000,0.200,26009.000,0.300,4814.000,0.500,1332.000,1.000,904.000,5.000,1.000
"07/02/06","00:05:02","AMMA06",62091.000,"cc",28309.656,6.00,2830.966,1,6,0.100,28637.000,0.200,26492.000,0.300,4822.000,0.500,1256.000,1.000,883.000,5.000,1.000
"07/02/06","00:05:08","AMMA06",61619.000,"cc",28324.117,6.00,2832.412,1,6,0.100,28590.000,0.200,26046.000,0.300,4857.000,0.500,1272.000,1.000,853.000,5.000,1.000
"07/02/06","00:05:14","AMMA06",61340.000,"cc",28327.117,6.00,2832.712,1,6,0.100,28570.000,0.200,25854.000,0.300,4767.000,0.500,1306.000,1.000,841.000,5.000,2.000
"07/02/06","00:05:20","AMMA06",61637.000,"cc",28278.344,6.00,2827.835,1,6,0.100,28755.000,0.200,25877.000,0.300,4759.000,0.500,1347.000,1.000,898.000,5.000,1.000
"07/02/06","00:05:26","AMMA06",62251.000,"cc",28339.785,6.00,2833.979,1,6,0.100,28911.000,0.200,26451.000,0.300,4805.000,0.500,1238.000,1.000,845.000,5.000,1.000
"07/02/06","00:05:32","AMMA06",61631.000,"cc",28320.221,6.00,2832.022,1,6,0.100,28452.000,0.200,26121.000,0.300,4862.000,0.500,1300.000,1.000,895.000,5.000,1.000
"07/02/06","00:05:38","AMMA06",61469.000,"cc",28362.613,6.00,2836.262,1,6,0.100,28338.000,0.200,26032.000,0.300,4803.000,0.500,1390.000,1.000,906.000,5.000,0
"07/02/06","00:05:44","AMMA06",61999.000,"cc",28297.789,6.00,2829.779,1,6,0.100,28588.000,0.200,26397.000,0.300,4759.000,0.500,1357.000,1.000,898.000,5.000,0
"07/02/06","00:05:50","AMMA06",61767.000,"cc",28331.121,6.00,2833.112,1,6,0.100,28620.000,0.200,26223.000,0.300,4814.000,0.500,1227.000,1.000,883.000,5.000,0
"07/02/06","00:05:56","AMMA06",61740.000,"cc",28322.328,6.00,2832.233,1,6,0.100,28632.000,0.200,26231.000,0.300,4692.000,0.500,1330.000,1.000,855.000,5.000,0
"07/02/06","00:06:02","AMMA06",61531.000,"cc",28350.965,6.00,2835.097,1,6,0.100,28265.000,0.200,26219.000,0.300,4839.000,0.500,1335.000,1.000,872.000,5.000,1.000
"07/02/06","00:06:08","AMMA06",61476.000,"cc",28306.305,6.00,2830.631,1,6,0.100,28351.000,0.200,26061.000,0.300,4844.000,0.500,1302.000,1.000,917.000,5.000,1.000
"07/02/06","00:06:14","AMMA06",61454.000,"cc",28247.125,6.00,2824.713,1,6,0.100,27940.000,0.200,26493.000,0.300,4899.000,0.500,1301.000,1.000,818.000,5.000,3.000
"07/02/06","00:06:20","AMMA06",62277.000,"cc",28282.496,6.00,2828.250,1,6,0.100,28847.000,0.200,26300.000,0.300,4895.000,0.500,1313.000,1.000,921.000,5.000,1.000
"07/02/06","00:06:26","AMMA06",62222.000,"cc",28320.279,6.00,2832.028,1,6,0.100,28670.000,0.200,26472.000,0.300,4899.000,0.500,1302.000,1.000,878.000,5.000,1.000
"07/02/06","00:06:32","AMMA06",61836.000,"cc",28359.166,6.00,2835.917,1,6,0.100,28244.000,0.200,26505.000,0.300,4982.000,0.500,1255.000,1.000,850.000,5.000,0
"07/02/06","00:06:38","AMMA06",61868.000,"cc",28312.797,6.00,2831.280,1,6,0.100,28262.000,0.200,26559.000,0.300,4942.000,0.500,1288.000,1.000,817.000,5.000,0
"07/02/06","00:06:44","AMMA06",62273.000,"cc",28310.410,6.00,2831.041,1,6,0.100,28322.000,0.200,26788.000,0.300,5026.000,0.500,1272.000,1.000,865.000,5.000,0
"07/02/06","00:06:50","AMMA06",61983.000,"cc",28307.859,6.00,2830.786,1,6,0.100,28177.000,0.200,26629.000,0.300,5006.000,0.500,1294.000,1.000,876.000,5.000,1.000
"07/02/06","00:06:56","AMMA06",61894.000,"cc",28351.563,6.00,2835.157,1,6,0.100,28035.000,0.200,26479.000,0.300,5084.000,0.500,1346.000,1.000,950.000,5.000,0
"07/02/06","00:07:02","AMMA06",61933.000,"cc",28310.709,6.00,2831.071,1,6,0.100,28185.000,0.200,26579.000,0.300,4926.000,0.500,1363.000,1.000,878.000,5.000,2.000
"07/02/06","00:07:08","AMMA06",61622.000,"cc",28333.121,6.00,2833.312,1,6,0.100,28012.000,0.200,26509.000,0.300,4893.000,0.500,1320.000,1.000,887.000,5.000,1.000
"07/02/06","00:07:14","AMMA06",61979.000,"cc",28305.307,6.00,2830.531,1,6,0.100,28032.000,0.200,26751.000,0.300,5033.000,0.500,1318.000,1.000,845.000,5.000,0
"07/02/06","00:07:20","AMMA06",61458.000,"cc",28323.584,6.00,2832.359,1,6,0.100,27708.000,0.200,26514.000,0.300,4998.000,0.500,1284.000,1.000,954.000,5.000,0
"07/02/06","00:07:26","AMMA06",62269.000,"cc",28318.045,6.00,2831.805,1,6,0.100,28134.000,0.200,26938.000,0.300,5052.000,0.500,1300.000,1.000,844.000,5.000,1.000
"07/02/06","00:07:32","AMMA06",61847.000,"cc",28324.805,6.00,2832.481,1,6,0.100,28138.000,0.200,26431.000,0.300,5116.000,0.500,1287.000,1.000,875.000,5.000,0
"07/02/06","00:07:38","AMMA06",62130.000,"cc",28265.102,6.00,2826.510,1,6,0.100,27977.000,0.200,26867.000,0.300,5197.000,0.500,1202.000,1.000,886.000,5.000,1.000
"07/02/06","00:07:44","AMMA06",62268.000,"cc",28305.242,6.00,2830.524,1,6,0.100,28160.000,0.200,26780.000,0.300,5106.000,0.500,1325.000,1.000,897.000,5.000,0
"07/02/06","00:07:50","AMMA06",62074.000,"cc",28293.160,6.00,2829.316,1,6,0.100,28095.000,0.200,26679.000,0.300,5092.000,0.500,1299.000,1.000,909.000,5.000,0
"07/02/06","00:07:56","AMMA06",62109.000,"cc",28362.115,6.00,2836.212,1,6,0.100,27700.000,0.200,27079.000,0.300,5158.000,0.500,1303.000,1.000,869.000,5.000,0
"07/02/06","00:08:02","AMMA06",62199.000,"cc",28319.908,6.00,2831.991,1,6,0.100,28208.000,0.200,26577.000,0.300,5146.000,0.500,1382.000,1.000,886.000,5.000,0
"07/02/06","00:08:08","AMMA06",62354.000,"cc",28302.523,6.00,2830.252,1,6,0.100,28031.000,0.200,26948.000,0.300,5165.000,0.500,1306.000,1.000,903.000,5.000,1.000
"07/02/06","00:08:14","AMMA06",62198.000,"cc",28330.408,6.00,2833.041,1,6,0.100,28087.000,0.200,26837.000,0.300,5030.000,0.500,1326.000,1.000,917.000,5.000,1.000
"07/02/06","00:08:20","AMMA06",62161.000,"cc",28251.768,6.00,2825.177,1,6,0.100,28003.000,0.200,26697.000,0.300,5292.000,0.500,1267.000,1.000,901.000,5.000,1.000
"07/02/06","00:08:26","AMMA06",62427.000,"cc",28306.186,6.00,2830.619,1,6,0.100,28344.000,0.200,26612.000,0.300,5233.000,0.500,1315.000,1.000,920.000,5.000,3.000
"07/02/06","00:08:32","AMMA06",61959.000,"cc",28367.936,6.00,2836.794,1,6,0.100,27831.000,0.200,26773.000,0.300,5112.000,0.500,1353.000,1.000,890.000,5.000,0
"07/02/06","00:08:38","AMMA06",61761.000,"cc",28380.826,6.00,2838.083,1,6,0.100,28143.000,0.200,26312.000,0.300,5140.000,0.500,1286.000,1.000,879.000,5.000,1.000
"07/02/06","00:08:44","AMMA06",61965.000,"cc",28301.231,6.00,2830.123,1,6,0.100,28176.000,0.200,26495.000,0.300,5086.000,0.500,1253.000,1.000,954.000,5.000,1.000
"07/02/06","00:08:50","AMMA06",61911.000,"cc",28280.834,6.00,2828.084,1,6,0.100,28088.000,0.200,26571.000,0.300,5039.000,0.500,1316.000,1.000,897.000,5.000,0
"07/02/06","00:08:56","AMMA06",62197.000,"cc",28320.602,6.00,2832.060,1,6,0.100,28357.000,0.200,26559.000,0.300,5097.000,0.500,1313.000,1.000,871.000,5.000,0
"07/02/06","00:09:02","AMMA06",61872.000,"cc",28300.193,6.00,2830.020,1,6,0.100,28175.000,0.200,26371.000,0.300,5097.000,0.500,1297.000,1.000,932.000,5.000,0
"07/02/06","00:09:08","AMMA06",62437.000,"cc",28303.629,6.00,2830.363,1,6,0.100,28461.000,0.200,26835.000,0.300,4980.000,0.500,1286.000,1.000,875.000,5.000,0
"07/02/06","00:09:14","AMMA06",62247.000,"cc",28308.346,6.00,2830.835,1,6,0.100,28151.000,0.200,26816.000,0.300,5037.000,0.500,1316.000,1.000,927.000,5.000,0
"07/02/06","00:09:20","AMMA06",61921.000,"cc",28343.080,6.00,2834.308,1,6,0.100,28138.000,0.200,26632.000,0.300,5028.000,0.500,1244.000,1.000,879.000,5.000,0
"07/02/06","00:09:26","AMMA06",62236.000,"cc",28343.877,6.00,2834.388,1,6,0.100,28368.000,0.200,26748.000,0.300,4919.000,0.500,1271.000,1.000,930.000,5.000,0
"07/02/06","00:09:32","AMMA06",62062.000,"cc",28289.154,6.00,2828.916,1,6,0.100,28430.000,0.200,26601.000,0.300,4903.000,0.500,1249.000,1.000,878.000,5.000,1.000
"07/02/06","00:09:38","AMMA06",62634.000,"cc",28305.068,6.00,2830.507,1,6,0.100,28693.000,0.200,26731.000,0.300,4948.000,0.500,1333.000,1.000,927.000,5.000,2.000
"07/02/06","00:09:44","AMMA06",62267.000,"cc",28326.279,6.00,2832.628,1,6,0.100,28475.000,0.200,26603.000,0.300,4930.000,0.500,1380.000,1.000,878.000,5.000,1.000
"07/02/06","00:09:50","AMMA06",61846.000,"cc",28276.703,6.00,2827.670,1,6,0.100,28171.000,0.200,26585.000,0.300,4913.000,0.500,1287.000,1.000,889.000,5.000,1.000
"07/02/06","00:09:56","AMMA06",62189.000,"cc",28263.240,6.00,2826.324,1,6,0.100,28656.000,0.200,26339.000,0.300,4914.000,0.500,1380.000,1.000,900.000,5.000,0
"07/02/06","00:10:02","AMMA06",61931.000,"cc",28340.545,6.00,2834.055,1,6,0.100,28380.000,0.200,26482.000,0.300,4822.000,0.500,1318.000,1.000,926.000,5.000,3.000
"07/02/06","00:10:08","AMMA06",62160.000,"cc",28331.688,6.00,2833.169,1,6,0.100,28510.000,0.200,26378.000,0.300,5057.000,0.500,1337.000,1.000,877.000,5.000,1.000
"07/02/06","00:10:14","AMMA06",62032.000,"cc",28306.445,6.00,2830.645,1,6,0.100,28471.000,0.200,26568.000,0.300,4887.000,0.500,1266.000,1.000,840.000,5.000,0
"07/02/06","00:10:20","AMMA06",61933.000,"cc",28334.258,6.00,2833.426,1,6,0.100,28674.000,0.200,26181.000,0.300,4841.000,0.500,1345.000,1.000,890.000,5.000,2.000
"07/02/06","00:10:26","AMMA06",62224.000,"cc",28328.721,6.00,2832.872,1,6,0.100,28891.000,0.200,26337.000,0.300,4867.000,0.500,1276.000,1.000,853.000,5.000,0
"07/02/06","00:10:32","AMMA06",61805.000,"cc",28297.070,6.00,2829.707,1,6,0.100,28574.000,0.200,26216.000,0.300,4830.000,0.500,1324.000,1.000,861.000,5.000,0
"07/02/06","00:10:38","AMMA06",61752.000,"cc",28356.514,6.00,2835.652,1,6,0.100,28496.000,0.200,26265.000,0.300,4747.000,0.500,1345.000,1.000,899.000,5.000,0
"07/02/06","00:10:44","AMMA06",61614.000,"cc",28331.346,6.00,2833.135,1,6,0.100,28521.000,0.200,26005.000,0.300,4873.000,0.500,1340.000,1.000,875.000,5.000,0
"07/02/06","00:10:50","AMMA06",62260.000,"cc",28321.787,6.00,2832.179,1,6,0.100,28892.000,0.200,26360.000,0.300,4789.000,0.500,1345.000,1.000,873.000,5.000,1.000
"07/02/06","00:10:56","AMMA06",61392.000,"cc",28277.832,6.00,2827.783,1,6,0.100,28341.000,0.200,26181.000,0.300,4710.000,0.500,1269.000,1.000,890.000,5.000,1.000
"07/02/06","00:11:02","AMMA06",61499.000,"cc",28260.576,6.00,2826.058,1,6,0.100,28349.000,0.200,26202.000,0.300,4768.000,0.500,1315.000,1.000,865.000,5.000,0
"07/02/06","00:11:08","AMMA06",62054.000,"cc",28329.213,6.00,2832.921,1,6,0.100,28828.000,0.200,26083.000,0.300,4925.000,0.500,1341.000,1.000,877.000,5.000,0
"07/02/06","00:11:14","AMMA06",62269.000,"cc",28341.371,6.00,2834.137,1,6,0.100,29371.000,0.200,25823.000,0.300,4855.000,0.500,1360.000,1.000,859.000,5.000,1.000
"07/02/06","00:11:20","AMMA06",61388.000,"cc",28365.000,6.00,2836.500,1,6,0.100,28488.000,0.200,25930.000,0.300,4803.000,0.500,1284.000,1.000,881.000,5.000,2.000
"07/02/06","00:11:26","AMMA06",61591.000,"cc",28274.998,6.00,2827.500,1,6,0.100,28855.000,0.200,25771.000,0.300,4750.000,0.500,1305.000,1.000,909.000,5.000,1.000
"07/02/06","00:11:32","AMMA06",61935.000,"cc",28381.543,6.00,2838.155,1,6,0.100,28726.000,0.200,26094.000,0.300,4875.000,0.500,1318.000,1.000,921.000,5.000,1.000
"07/02/06","00:11:38","AMMA06",61821.000,"cc",28292.279,6.00,2829.228,1,6,0.100,28919.000,0.200,25841.000,0.300,4889.000,0.500,1310.000,1.000,860.000,5.000,2.000
"07/02/06","00:11:44","AMMA06",61615.000,"cc",28284.922,6.00,2828.492,1,6,0.100,28543.000,0.200,26114.000,0.300,4799.000,0.500,1287.000,1.000,870.000,5.000,2.000
"07/02/06","00:11:50","AMMA06",61903.000,"cc",28302.320,6.00,2830.232,1,6,0.100,28735.000,0.200,26155.000,0.300,4785.000,0.500,1340.000,1.000,888.000,5.000,0
"07/02/06","00:11:56","AMMA06",61563.000,"cc",28341.961,6.00,2834.196,1,6,0.100,28566.000,0.200,26108.000,0.300,4795.000,0.500,1272.000,1.000,822.000,5.000,0
"07/02/06","00:12:02","AMMA06",61889.000,"cc",28307.002,6.00,2830.700,1,6,0.100,28831.000,0.200,25996.000,0.300,4818.000,0.500,1378.000,1.000,865.000,5.000,1.000
"07/02/06","00:12:08","AMMA06",61718.000,"cc",28330.281,6.00,2833.028,1,6,0.100,28796.000,0.200,25819.000,0.300,4910.000,0.500,1300.000,1.000,893.000,5.000,0
"07/02/06","00:12:14","AMMA06",61565.000,"cc",28334.981,6.00,2833.498,1,6,0.100,28352.000,0.200,26148.000,0.300,4907.000,0.500,1316.000,1.000,842.000,5.000,0
"07/02/06","00:12:20","AMMA06",62262.000,"cc",28323.080,6.00,2832.308,1,6,0.100,29011.000,0.200,26060.000,0.300,4967.000,0.500,1370.000,1.000,854.000,5.000,0
"07/02/06","00:12:26","AMMA06",62227.000,"cc",28301.727,6.00,2830.173,1,6,0.100,28938.000,0.200,26077.000,0.300,5058.000,0.500,1249.000,1.000,904.000,5.000,1.000
"07/02/06","00:12:32","AMMA06",61856.000,"cc",28331.043,6.00,2833.105,1,6,0.100,28388.000,0.200,26222.000,0.300,5022.000,0.500,1349.000,1.000,874.000,5.000,1.000
"07/02/06","00:12:38","AMMA06",61730.000,"cc",28298.416,6.00,2829.842,1,6,0.100,28456.000,0.200,26288.000,0.300,4837.000,0.500,1263.000,1.000,886.000,5.000,0
"07/02/06","00:12:44","AMMA06",61982.000,"cc",28337.342,6.00,2833.734,1,6,0.100,28598.000,0.200,26265.000,0.300,4907.000,0.500,1321.000,1.000,891.000,5.000,0
"07/02/06","00:12:50","AMMA06",61943.000,"cc",28293.250,6.00,2829.325,1,6,0.100,28301.000,0.200,26417.000,0.300,4953.000,0.500,1375.000,1.000,897.000,5.000,0
"07/02/06","00:12:56","AMMA06",61560.000,"cc",28302.465,6.00,2830.247,1,6,0.100,28320.000,0.200,26119.000,0.300,4972.000,0.500,1281.000,1.000,868.000,5.000,0
"07/02/06","00:13:02","AMMA06",61860.000,"cc",28330.936,6.00,2833.094,1,6,0.100,28528.000,0.200,26217.000,0.300,4860.000,0.500,1347.000,1.000,908.000,5.000,0
"07/02/06","00:13:08","AMMA06",62070.000,"cc",28327.748,6.00,2832.775,1,6,0.100,28399.000,0.200,26378.000,0.300,4996.000,0.500,1323.000,1.000,973.000,5.000,1.000
"07/02/06","00:13:14","AMMA06",61642.000,"cc",28321.221,6.00,2832.122,1,6,0.100,28407.000,0.200,26193.000,0.300,4861.000,0.500,1292.000,1.000,889.000,5.000,0
"07/02/06","00:13:20","AMMA06",61750.000,"cc",28305.830,6.00,2830.583,1,6,0.100,28261.000,0.200,26261.000,0.300,4986.000,0.500,1313.000,1.000,928.000,5.000,1.000
"07/02/06","00:13:26","AMMA06",62356.000,"cc",28311.881,6.00,2831.188,1,6,0.100,28527.000,0.200,26401.000,0.300,5211.000,0.500,1265.000,1.000,951.000,5.000,1.000
"07/02/06","00:13:32","AMMA06",61983.000,"cc",28367.563,6.00,2836.756,1,6,0.100,28383.000,0.200,26465.000,0.300,4968.000,0.500,1274.000,1.000,892.000,5.000,1.000
"07/02/06","00:13:38","AMMA06",62168.000,"cc",28281.527,6.00,2828.153,1,6,0.100,28335.000,0.200,26677.000,0.300,5023.000,0.500,1270.000,1.000,862.000,5.000,1.000
"07/02/06","00:13:44","AMMA06",62426.000,"cc",28339.986,6.00,2833.999,1,6,0.100,28605.000,0.200,26696.000,0.300,4976.000,0.500,1302.000,1.000,847.000,5.000,0
"07/02/06","00:13:50","AMMA06",62000.000,"cc",28318.574,6.00,2831.858,1,6,0.100,28367.000,0.200,26423.000,0.300,4988.000,0.500,1289.000,1.000,933.000,5.000,0
"07/02/06","00:13:56","AMMA06",62122.000,"cc",28273.701,6.00,2827.370,1,6,0.100,28332.000,0.200,26517.000,0.300,5088.000,0.500,1284.000,1.000,900.000,5.000,1.000
"07/02/06","00:14:02","AMMA06",61885.000,"cc",28309.842,6.00,2830.984,1,6,0.100,28219.000,0.200,26399.000,0.300,5075.000,0.500,1293.000,1.000,897.000,5.000,2.000